Location: ????????
(60.4333°N, 46.4710°E)
Time: 04:43:50
(UTC+00:00)

SL-16 R/B - Pass Details

Date: 25 November 2020
Orbit: 842 x 846 km, 71.0° (Epoch: 19 January)

Event Time Altitude Azimuth Distance (km) Brightness Sun altitude
Rises 14:03:51 0° 247° (WSW) 3,400 7.4 -13.6°
Reaches altitude 10° 14:06:24 10° 254° (WSW) 2,468 6.1 -13.9°
Maximum altitude 14:11:51 46° 327° (NNW) 1,125 3.0 -14.6°
Enters shadow 14:16:18 15° 37° (NE) 2,125 3.8 -15.1°
